Tracking 17631 objects as of 3-May-2016
HD Live streaming from Space Station
objects crossing your sky now

SL-12 R/B(AUX MOTOR)

Track SL-12 R/B(AUX MOTOR) now!


NORAD ID: 25053
Int'l Code: 1997-070E
Perigee: 964.7 km
Apogee: 33,197.7 km
Inclination: 45.6 °
Period: 595.7 minutes
Semi major axis: 23452 km
RCS: 0.8237 m2 (medium)
Launch date: November 12, 1997
Source: Commonwealth of Independent States (former USSR) (CIS)
Launch site: TYURATAM MISSILE AND SPACE COMPLEX (TTMTR)

Note: This is a ROCKET BODY
Your satellite tracking list
Your tracking list is empty





NASA's NSSDC Master Catalog

Two Line Element Set (TLE):
1 25053U 97070E   16124.38263490  .00000076  00000-0  12743-2 0  9999
2 25053  45.6002 247.5852 6872063  50.2194 352.4052  2.41728488162509
Source of the keplerian elements: AFSPC

N2YO: 387